Starlink 5454

operational
NORAD ID: 54774 Int'l Des: 2022-175 Owner: SPXS Country: US Constellation: starlink
LEOCIRCULAR

Über Starlink 5454

Beschreibung wird geladen...

Live-Position

3D-Globus wird geladen...

Nächste Überflüge

Höhenverlauf

Altitude vs Time

uPlot chart will show altitude changes over time

Zweizeiliger Elementsatz

1 54774U 22175S 25257.28881891 -.00001629 00000-0 -84289-4 0 9995
2 54774 53.2169 100.6931 0001294 94.2195 265.8945 15.08832080153509
Epoch: 14. Sept. 2025 • Age: 28 hours

Aktueller Status

Höhe 557.2 km
Geschwindigkeit 7.58 km/s
Subsatellitenpunkt -48.35°S, 171.66°E
Startdatum 17. Dez. 2022
Alter 2.7 years
Typ internet

Technische Details

Klassifizierung Payload
Masse 305.00 kg
Trockenmasse 290.00 kg
Gesamtmasse 305.00 kg
Länge 0.20 m
Durchmesser 2.80 m
Spannweite 9.00 m
Form Box + pan
Hersteller SPXS
Bus-Typ Starlink
Phasenstatus In Orbit
Besitzer/Staat SPXS/US

Große Konstellationen

Loading constellations...